Regional Weather Roundup
Issued by NWS Boston, MA

Home | Current Version | Previous Version | Text Only | Print | Product List | Glossary On
Versions: 1 2 3 4 5 6 7 8 9 10 11 12 13 14 15 16 17 18 19 20 21 22 23 24 25 26 27 28 29 30 31 32 33 34 35 36 37 38 39 40 41 42 43 44 45 46 47 48 49 50
328
ASUS41 KBOX 260010
RWRBOX

REGIONAL WEATHER ROUNDUP
NATIONAL WEATHER SERVICE TAUNTON MA
800 PM EDT THU MAY 25 2017

NOTE:  "FAIR" INDICATES FEW OR NO CLOUDS BELOW 12,000 FEET WITH NO
SIGNIFICANT WEATHER AND/OR OBSTRUCTIONS TO VISIBILITY.

MAZALL-260100-
EASTERN MASSACHUSETTS

CITY           SKY/WX    TMP DP  RH WIND       PRES   REMARKS
BOSTON         CLOUDY    52  51  97 NE18      29.69F FOG
6HR MIN TEMP:  51; 6HR MAX TEMP:  52; 6HR PCP:  0.20;

BEVERLY        LGT RAIN  52  50  93 NE10      29.70S FOG
LAWRENCE       CLOUDY    53  50  89 NE16G24   29.74S FOG
BEDFORD        LGT RAIN  51  48  89 NE9       29.68F VSB 1
BLUE HILL        N/A     50  49  96 NE17G26   29.65F
NORWOOD        CLOUDY    53  52  96 NE9       29.67F FOG
MARSHFIELD     FOG       54  54 100 NE9       29.66S VSB 1/2
PLYMOUTH       FOG       53  52  96 NE7       29.65F VSB 1/2
TAUNTON        CLOUDY    53  52  96 VRB6      29.64F FOG
NEW BEDFORD    CLOUDY    54  54 100 NE9       29.63F FOG
$$

MAZALL-260100-
CAPE COD AND THE ISLANDS

CITY           SKY/WX    TMP DP  RH WIND       PRES   REMARKS
FALMOUTH         N/A    N/A N/A N/A MISG        N/A
HYANNIS        FOG       55  55 100 CALM      29.63F VSB 1/4
CHATHAM        FOG       55  55 100 E6        29.65F VSB 1/4
PROVINCETOWN   FOG       53  52  96 E8        29.66F VSB 1
NANTUCKET      LGT RAIN  57  55  93 SE10      29.63F VSB 1/4
MARTHAS VNYRD  FOG       57  55  93 NE6       29.62F VSB 1/4
$$

MAZALL-260100-
CENTRAL AND WESTERN MASSACHUSETTS

CITY           SKY/WX    TMP DP  RH WIND       PRES   REMARKS
WORCESTER      LGT RAIN  49  47  93 NE12      29.67S VSB 1/2
6HR MIN TEMP:  49; 6HR MAX TEMP:  51; 6HR PCP:  0.11;

FITCHBURG      LGT RAIN  52  50  93 NE8       29.72S FOG
ORANGE         CLOUDY    52  49  89 VRB5G18   29.66R
SPRINGFIELD    DRIZZLE   53  50  92 NE9       29.64F FOG
WESTFIELD      RAIN      53  53 100 NE8       29.65S FOG
NORTH ADAMS    CLOUDY    54  48  80 SE15G22   29.62S
PITTSFIELD     CLOUDY    52  47  83 E14G21    29.62R
$$

RIZALL-260100-
RHODE ISLAND

CITY           SKY/WX    TMP DP  RH WIND       PRES   REMARKS
PROVIDENCE     NOT AVBL
NEWPORT        FOG       56  56 100 NE9       29.62F VSB 1
BLOCK ISLAND   LGT RAIN  55  55 100 NE12      29.61F VSB 1/4
SMITHFIELD     LGT RAIN  52  52 100 NE9       29.65F FOG
WESTERLY       CLOUDY    57  56  96 NE9       29.60F FOG
$$

CTZALL-260100-
CONNECTICUT

CITY           SKY/WX    TMP DP  RH WIND       PRES   REMARKS
BRADLEY INTL   LGT RAIN  53  53 100 N12       29.64S FOG
6HR MIN TEMP:  53; 6HR MAX TEMP:  57; 6HR PCP:  0.20;

HARTFORD       CLOUDY    56  54  93 N7        29.63R FOG
BRIDGEPORT     CLOUDY    59  57  93 NE12      29.56F FOG
DANBURY        CLOUDY    55  55 100 NE12G20   29.58S
GROTON         CLOUDY    57  55  93 NE12      29.59F FOG
NEW HAVEN      CLOUDY    58  56  93 NE10      29.58S FOG
CHESTER        FOG       55  55 100 NE8       29.59S VSB 1
MERIDEN        CLOUDY    55  55 100 N7        29.60S FOG
WILLIMANTIC    CLOUDY    56  54  93 NE7       29.63F
OXFORD         LGT RAIN  55  50  82 E12G17    29.60F FOG
$$

MEZ002-015-021-024-NHZ003-005-008-011-012-014-VTZ005-008-260100-
NORTHERN NEW ENGLAND

CITY           SKY/WX    TMP DP  RH WIND       PRES   REMARKS
PORTLAND ME    LGT RAIN  50  48  93 E18G32    29.80S VSB 1
6HR MIN TEMP:  50; 6HR MAX TEMP:  54; 6HR PCP:  0.14;

BANGOR ME      CLOUDY    57  51  80 E10       29.86F
CONCORD NH     LGT RAIN  51  48  89 NE7       29.76S FOG
MANCHESTER NH  LGT RAIN  51  47  86 NE10      29.73S VSB 1
NASHUA NH      LGT RAIN  51  50  96 E6        29.74S FOG
PORTSMOUTH NH  LGT RAIN  49  48  96 NE14G22   29.74R FOG
JAFFREY NH     CLOUDY    50  49  96 VRB6      29.71R FOG
KEENE NH       CLOUDY    53  48  83 N6        29.68S
BURLINGTON VT  LGT RAIN  57  53  86 SE10      29.69R
MT. WASHINGTON LGT RAIN  34  34 100 SE66G74     N/A  VSB 0   WCI  15
$$

NYZ052-076-260100-
EASTERN NEW YORK

CITY           SKY/WX    TMP DP  RH WIND       PRES   REMARKS
ALBANY         LGT RAIN  57  55  93 N3        29.63R FOG
6HR MIN TEMP:  56; 6HR MAX TEMP:  58; 6HR PCP:  0.16;

NEW YORK CITY  DRZL/FOG  57  56  96 NE16      29.53S VSB 1/2
6HR MIN TEMP:  57; 6HR MAX TEMP:  58; 6HR PCP:  0.05;

$$

ANZALL-260100-
MARINE OBSERVATIONS

STATION/POSITION TIME  TEMP    WIND        PRES    VSBY  WAVE
                       AIR SEA DIR/SP/G                  HT/PER
                 (UTC) (F)     (DEG/KT/KT) (MB)    (MI)  (FT/S)
BOSTON BUOY      2350   52 53   70/ 14/ 17 1004.4F         6/ 6
BUZZARDS BAY     2300   55      60/ 14/ 16 1003.7R
NANTUCKET SOUND  2350      54              1003.1F         1/ 5
MASS BAY-STELLWA 2304   51 52   70/ 17/ 21 1005.2R         6/ 6
ISLE OF SHOALS   2300   49      60/ 32/ 35 1005.1F
S OF BLOCK IS    2355      53                N/A           5/ 9
$$

......................KEY.........................
  SKY/WX - SKY CONDITION/PRESENT WEATHER
  TMP    - TEMPERATURE IN FAHRENHEIT
  DWPT   - DEWPOINT IN FAHRENHEIT
  RH     - RELATIVE HUMIDITY IN PERCENT
  WIND   - DIRECTION AND SPEED IN MPH
  PRES   - MEAN SEA LEVEL PRESSURE IN INCHES OF HG
  WCI    - WIND CHILL INDEX
  VSB    - VISIBILITY IN MILES
  HX     - HEAT INDEX
  TC     - TEMPERATURE IN CELSIUS
  VRB    - VARIABLE WIND DIRECTION
  N/A    - NOT AVAILABLE




USA.gov is the U.S. government's official web portal to all federal, state and local government web resources and services.